| time (UTC) | temp F | wind direction | speed MPH | gust MPH | rain 1hr in | rain 24hr in | rain mn in | humidity % | barometer mb |
| 20260507112533 | 48 | 235 | 0.0 | 1.0 | 0.00 | 0.50 | 0.22 | 98 | 1008.7 |
| 20260507110532 | 47 | 0 | 0.0 | 0.0 | 0.00 | 0.50 | 0.22 | 98 | 1009.3 |
| 20260507104532 | 47 | 0 | 0.0 | 1.0 | 0.00 | 0.50 | 0.22 | 98 | 1009.0 |
| 20260507102532 | 47 | 204 | 1.0 | 2.0 | 0.00 | 0.50 | 0.22 | 98 | 1008.3 |
| 20260507100533 | 47 | 159 | 0.0 | 2.0 | 0.01 | 0.50 | 0.22 | 98 | 1008.1 |
| 20260507094532 | 47 | 195 | 1.0 | 2.0 | 0.01 | 0.50 | 0.22 | 98 | 1007.9 |
| 20260507092533 | 47 | 189 | 0.0 | 2.0 | 0.01 | 0.50 | 0.22 | 98 | 1008.0 |
| 20260507090532 | 48 | 193 | 1.0 | 4.0 | 0.00 | 0.49 | 0.21 | 98 | 1007.9 |
| 20260507084532 | 48 | 208 | 2.0 | 4.0 | 0.00 | 0.49 | 0.21 | 98 | 1007.5 |
| 20260507082532 | 49 | 215 | 1.0 | 2.0 | 0.00 | 0.49 | 0.21 | 98 | 1007.7 |
| 20260507080532 | 50 | 174 | 1.0 | 2.0 | 0.00 | 0.49 | 0.21 | 98 | 1007.3 |
| 20260507074532 | 50 | 265 | 0.0 | 2.0 | 0.00 | 0.49 | 0.21 | 98 | 1007.2 |
| 20260507072535 | 50 | 225 | 0.0 | 1.0 | 0.00 | 0.49 | 0.21 | 98 | 1006.8 |
| 20260507070532 | 50 | 0 | 0.0 | 0.0 | 0.00 | 0.49 | 0.21 | 98 | 1006.6 |
| 20260507064532 | 51 | 225 | 0.0 | 2.0 | 0.00 | 0.49 | 0.21 | 98 | 1006.6 |
| 20260507062532 | 51 | 199 | 2.0 | 3.0 | 0.00 | 0.49 | 0.21 | 98 | 1006.6 |
| 20260507060532 | 51 | 180 | 1.0 | 2.0 | 0.00 | 0.49 | 0.21 | 98 | 1006.3 |
| 20260507054532 | 51 | 145 | 1.0 | 6.0 | 0.06 | 0.49 | 0.21 | 98 | 1006.3 |
| 20260507052532 | 52 | 184 | 2.0 | 4.0 | 0.17 | 0.49 | 0.21 | 98 | 1006.3 |
| 20260507044532 | 53 | 193 | 1.0 | 3.0 | 0.10 | 0.39 | 0.10 | 98 | 1006.6 |
| 20260507042532 | 53 | 246 | 3.0 | 5.0 | 0.03 | 0.31 | 0.03 | 98 | 1005.4 |
| 20260507040532 | 52 | 251 | 4.0 | 5.0 | 0.00 | 0.28 | 0.00 | 98 | 1005.8 |
| 20260507034532 | 52 | 245 | 4.0 | 6.0 | 0.00 | 0.28 | 0.28 | 98 | 1005.8 |
| 20260507030532 | 52 | 249 | 6.0 | 8.0 | 0.00 | 0.28 | 0.28 | 98 | 1006.1 |
| 20260507024532 | 52 | 259 | 7.0 | 11.0 | 0.00 | 0.28 | 0.28 | 98 | 1006.3 |
| 20260507022532 | 52 | 235 | 6.0 | 9.0 | 0.00 | 0.28 | 0.28 | 98 | 1006.6 |
| 20260507020532 | 52 | 238 | 6.0 | 10.0 | 0.02 | 0.28 | 0.28 | 98 | 1006.8 |
| 20260507014533 | 51 | 242 | 8.0 | 10.0 | 0.02 | 0.28 | 0.28 | 98 | 1007.1 |
| 20260507012532 | 52 | 258 | 6.0 | 9.0 | 0.02 | 0.28 | 0.28 | 98 | 1007.1 |
| 20260507010532 | 52 | 214 | 5.0 | 8.0 | 0.00 | 0.25 | 0.25 | 98 | 1007.3 |
| 20260507000534 | 52 | 232 | 7.0 | 11.0 | 0.00 | 0.25 | 0.25 | 98 | 1007.6 |
| 20260506234533 | 53 | 234 | 6.0 | 8.0 | 0.02 | 0.25 | 0.25 | 98 | 1007.9 |
| 20260506232533 | 53 | 218 | 7.0 | 8.0 | 0.05 | 0.25 | 0.25 | 98 | 1007.9 |
| 20260506230534 | 54 | 202 | 8.0 | 11.0 | 0.08 | 0.25 | 0.25 | 98 | 1008.1 |
| 20260506224532 | 54 | 241 | 8.0 | 9.0 | 0.11 | 0.22 | 0.22 | 98 | 1008.1 |
| 20260506222532 | 54 | 243 | 9.0 | 12.0 | 0.12 | 0.19 | 0.19 | 98 | 1008.1 |
| 20260506212532 | 53 | 247 | 9.0 | 11.0 | 0.04 | 0.07 | 0.07 | 58 | 1009.1 |
| 20260506210532 | 53 | 255 | 6.0 | 9.0 | 0.03 | 0.04 | 0.04 | 73 | 1008.8 |
| 20260506204532 | 54 | 227 | 6.0 | 9.0 | 0.03 | 0.04 | 0.04 | 60 | 1009.2 |
| 20260506202532 | 54 | 244 | 6.0 | 8.0 | 0.03 | 0.03 | 0.03 | 89 | 1009.3 |
| 20260506200532 | 54 | 238 | 7.0 | 11.0 | 0.01 | 0.01 | 0.01 | 98 | 1009.1 |
| 20260506194533 | 54 | 232 | 8.0 | 11.0 | 0.00 | 0.00 | 0.00 | 98 | 1009.3 |
| 20260506184532 | 0 | 0 | 0.0 | 0.0 | 0.00 | 0.00 | 0.00 | 100 | |
| 20260506182537 | 0 | 0 | 0.0 | 0.0 | 0.00 | 0.00 | 0.00 | 100 | |
| 20260506140533 | 57 | 215 | 6.0 | 8.0 | 0.00 | 0.00 | 0.00 | 98 | 1011.8 |
| 20260506134532 | 57 | 251 | 7.0 | 10.0 | 0.00 | 0.00 | 0.00 | 98 | 1011.7 |
| 20260506122533 | 56 | 238 | 5.0 | 7.0 | 0.00 | 0.00 | 0.00 | 98 | 1011.8 |